CW5053 Weather Reports


time (UTC)temp
C
wind
direction
speed
KPH
gust
KPH
rain 1hr
cm
rain 24hr
cm
rain mn
cm
humidity
%
barometer
mb
20260505091530 10 176 1.6 3.2 0.00 0.00 0.00 94 1014.9
20260505091235 11 176 1.6 4.8 0.00 0.00 0.00 94 1015.2
20260505091053 10 176 1.6 4.8 0.00 0.00 0.00 94 1014.7
20260505090715 11 176 3.2 0.0 0.00 0.00 0.00 94 1014.9
20260505090531 10 176 1.6 4.8 0.00 0.00 0.00 94 1014.8
20260505090213 11 178 1.6 6.4 0.00 0.00 0.00 94 1015.1
20260505090012 10 178 1.6 6.4 0.00 0.00 0.00 94 1014.8
20260505085739 11 178 4.8 6.4 0.00 0.00 0.00 94 1015.2
20260505085541 10 188 3.2 8.0 0.00 0.00 0.00 94 1014.7
20260505085224 11 182 3.2 8.0 0.00 0.00 0.00 94 1015.2
20260505085022 10 186 3.2 8.0 0.00 0.00 0.00 94 1014.8
20260505084716 11 177 4.8 8.0 0.00 0.00 0.00 94 1015.2
20260505084505 10 188 3.2 6.4 0.00 0.00 0.00 94 1014.8
20260505084218 11 176 4.8 6.4 0.00 0.00 0.00 94 1015.1
20260505084047 10 182 4.8 6.4 0.00 0.00 0.00 94 1014.7
20260505083719 11 165 3.2 6.4 0.00 0.00 0.00 94 1015.2
20260505083528 10 172 3.2 6.4 0.00 0.00 0.00 94 1014.7
20260505083228 10 174 4.8 6.4 0.00 0.00 0.00 94 1015.2
20260505083012 10 177 3.2 8.0 0.00 0.00 0.00 94 1014.6
20260505082709 10 179 4.8 8.0 0.00 0.00 0.00 94 1015.1
20260505082553 10 175 3.2 8.0 0.00 0.00 0.00 94 1014.6
20260505082211 10 190 3.2 8.0 0.00 0.00 0.00 94 1015.1
20260505082035 10 186 4.8 8.0 0.00 0.00 0.00 94 1014.6
20260505081712 10 184 3.2 6.4 0.00 0.00 0.00 94 1014.9
20260505081517 10 173 3.2 6.4 0.00 0.00 0.00 94 1014.5
20260505081221 10 178 3.2 6.4 0.00 0.00 0.00 94 1014.9
20260505081100 10 175 3.2 8.0 0.00 0.00 0.00 94 1014.5
20260505080722 10 160 4.8 8.0 0.00 0.00 0.00 94 1015.0
20260505080547 10 176 3.2 8.0 0.00 0.00 0.00 94 1014.5
20260505080230 10 173 3.2 8.0 0.00 0.00 0.00 94 1015.0
20260505080002 10 182 3.2 8.0 0.00 0.00 0.00 94 1014.5
20260505075711 10 178 3.2 8.0 0.00 0.00 0.00 93 1014.9
20260505075545 10 177 3.2 8.0 0.00 0.00 0.00 93 1014.4
20260505075219 10 164 1.6 6.4 0.00 0.00 0.00 93 1014.9
20260505075010 10 164 3.2 6.4 0.00 0.00 0.00 92 1014.5
20260505074720 10 211 1.6 3.2 0.00 0.00 0.00 92 1014.8
20260505074549 10 211 0.0 3.2 0.00 0.00 0.00 92 1014.4
20260505074222 10 211 1.6 3.2 0.00 0.00 0.00 92 1014.7
20260505074032 10 211 1.6 3.2 0.00 0.00 0.00 92 1014.2
20260505073729 10 229 0.0 3.2 0.00 0.00 0.00 92 1014.6
20260505073511 10 229 0.0 3.2 0.00 0.00 0.00 92 1014.1
20260505073210 10 229 1.6 3.2 0.00 0.00 0.00 91 1014.5
20260505073058 10 229 0.0 3.2 0.00 0.00 0.00 91 1014.0
20260505072711 10 229 1.6 3.2 0.00 0.00 0.00 91 1014.4
20260505072535 10 229 0.0 4.8 0.00 0.00 0.00 91 1013.9
20260505072213 11 245 0.0 4.8 0.00 0.00 0.00 91 1014.3
20260505072017 10 245 0.0 4.8 0.00 0.00 0.00 91 1013.8
20260505071721 11 245 1.6 4.8 0.00 0.00 0.00 90 1014.3
20260505071601 10 235 0.0 4.8 0.00 0.00 0.00 90 1013.7
20260505071224 11 231 1.6 4.8 0.00 0.00 0.00 90 1014.2
20260505071039 10 232 0.0 1.6 0.00 0.00 0.00 89 1013.7
20260505070722 11 232 0.0 1.6 0.00 0.00 0.00 89 1014.2
20260505070520 11 286 0.0 1.6 0.00 0.00 0.00 89 1013.6
20260505070230 11 286 1.6 3.2 0.00 0.00 0.00 89 1014.2
20260505070002 11 286 0.0 3.2 0.00 0.00 0.00 89 1013.6
20260505065712 11 286 1.6 3.2 0.00 0.00 0.00 88 1014.1
20260505065545 11 286 0.0 3.2 0.00 0.00 0.00 89 1013.5
20260505065213 11 286 1.6 3.2 0.00 0.00 0.00 88 1014.0
20260505065026 11 286 0.0 1.6 0.00 0.00 0.00 88 1013.5
20260505064722 11 286 0.0 1.6 0.00 0.00 0.00 88 1014.0
20260505064513 11 286 0.0 3.2 0.00 0.00 0.00 88 1013.4
20260505064223 12 286 0.0 9.7 0.00 0.00 0.00 88 1014.0
20260505064051 11 286 0.0 9.7 0.00 0.00 0.00 88 1013.3
20260505063725 12 286 0.0 9.7 0.00 0.00 0.00 88 1013.8
20260505063533 11 286 1.6 9.7 0.00 0.00 0.00 88 1013.3
20260505063233 12 268 3.2 9.7 0.00 0.00 0.00 87 1013.7
20260505063014 12 226 1.6 6.4 0.00 0.00 0.00 87 1013.1
20260505062714 12 244 1.6 4.8 0.00 0.00 0.00 86 1013.7
20260505062557 12 185 0.0 3.2 0.00 0.00 0.00 86 1013.1
20260505062216 12 185 1.6 4.8 0.00 0.00 0.00 86 1013.6
20260505062038 12 185 0.0 6.4 0.00 0.00 0.00 86 1013.0
20260505061745 12 185 1.6 6.4 0.00 0.00 0.00 86 1013.6
20260505061602 12 185 1.6 6.4 0.00 0.00 0.00 86 1013.0
20260505061225 12 178 1.6 4.8 0.00 0.00 0.00 86 1013.5
20260505061024 12 217 1.6 4.8 0.00 0.00 0.00 86 1013.0
20260505060734 13 191 3.2 6.4 0.00 0.00 0.00 85 1013.5
20260505060506 12 196 3.2 6.4 0.00 0.00 0.00 85 1012.9
20260505060215 13 207 3.2 6.4 0.00 0.00 0.00 85 1013.3
20260505060048 12 178 4.8 6.4 0.00 0.00 0.00 85 1012.8
20260505055716 13 192 3.2 6.4 0.00 0.00 0.00 85 1013.3
20260505055530 13 178 1.6 6.4 0.00 0.00 0.00 85 1012.8
20260505055224 13 190 1.6 6.4 0.00 0.00 0.00 84 1013.3
20260505055013 13 172 1.6 4.8 0.00 0.00 0.00 84 1012.8
20260505054725 13 159 3.2 4.8 0.00 0.00 0.00 84 1013.3
20260505054538 13 163 1.6 6.4 0.00 0.00 0.00 84 1012.7
20260505054233 13 145 1.6 4.8 0.00 0.00 0.00 84 1013.4
20260505054012 13 145 1.6 4.8 0.00 0.00 0.00 84 1012.7
20260505053711 13 159 1.6 4.8 0.00 0.00 0.00 83 1013.3
20260505053555 13 159 1.6 4.8 0.00 0.00 0.00 83 1012.8
20260505053213 13 150 1.6 4.8 0.00 0.00 0.00 83 1013.3
20260505053041 13 150 1.6 4.8 0.00 0.00 0.00 83 1012.7
20260505052714 14 190 1.6 4.8 0.00 0.00 0.00 82 1013.3
20260505052517 13 215 1.6 4.8 0.00 0.00 0.00 82 1012.8
20260505052222 14 343 0.0 3.2 0.00 0.00 0.00 82 1013.3
20260505052100 14 342 0.0 3.2 0.00 0.00 0.00 82 1012.7
20260505051724 14 342 1.6 3.2 0.00 0.00 0.00 81 1013.3
20260505051543 14 342 1.6 3.2 0.00 0.00 0.00 81 1012.7
20260505051232 15 327 1.6 3.2 0.00 0.00 0.00 80 1013.2
20260505051002 14 327 0.0 3.2 0.00 0.00 0.00 80 1012.6
20260505050713 15 327 1.6 3.2 0.00 0.00 0.00 80 1013.1
20260505050545 15 327 0.0 3.2 0.00 0.00 0.00 79 1012.5
20260505050214 15 322 1.6 3.2 0.00 0.00 0.00 79 1013.0
20260505041713 17 225 1.6 6.4 0.00 0.00 0.00 72 1012.8
20260505041544 16 225 1.6 6.4 0.00 0.00 0.00 72 1012.2
20260505041243 17 243 3.2 9.7 0.00 0.00 0.00 71 1012.7
20260505041006 17 247 3.2 9.7 0.00 0.00 0.00 71 1012.0
20260505040739 17 234 4.8 9.7 0.00 0.00 0.00 71 1012.6
20260505040528 17 335 3.2 8.0 0.00 0.00 0.00 71 1012.0
20260505040248 17 320 4.8 9.7 0.00 0.00 0.00 71 1012.5
20260505040052 17 292 3.2 12.9 0.00 0.00 0.00 71 1011.9
20260505035728 17 316 3.2 17.7 0.00 0.00 0.00 71 1012.4
20260505035533 17 350 3.2 17.7 0.00 0.00 0.00 71 1011.8
20260505035233 17 311 8.0 17.7 0.00 0.00 0.00 71 1012.4
20260505035011 17 341 4.8 12.9 0.00 0.00 0.00 71 1011.7
20260505034714 17 327 3.2 8.0 0.00 0.00 0.00 71 1012.4
20260505034555 17 329 1.6 4.8 0.00 0.00 0.00 72 1011.7
20260505034236 17 15 1.6 4.8 0.00 0.00 0.00 71 1012.2
20260505034015 17 15 0.0 4.8 0.00 0.00 0.00 71 1011.5
20260505033724 18 15 3.2 4.8 0.00 0.00 0.00 70 1012.2
20260505033559 17 12 0.0 3.2 0.00 0.00 0.00 69 1011.5
20260505033231 18 315 0.0 4.8 0.00 0.00 0.00 69 1012.1
20260505033019 18 315 0.0 6.4 0.00 0.00 0.00 69 1011.4
20260505032713 18 315 1.6 6.4 0.00 0.00 0.00 68 1012.1
20260505032605 18 315 1.6 6.4 0.00 0.00 0.00 68 1011.4
20260505032214 18 323 3.2 8.0 0.00 0.00 0.00 67 1012.0
20260505032043 18 338 3.2 12.9 0.00 0.00 0.00 67 1011.3
20260505031715 18 331 4.8 12.9 0.00 0.00 0.00 67 1011.9
20260505031536 18 334 3.2 12.9 0.00 0.00 0.00 66 1011.2
20260505031224 19 277 6.4 12.9 0.00 0.00 0.00 66 1012.0
20260505031011 19 315 1.6 9.7 0.00 0.00 0.00 65 1011.3
20260505030725 19 280 4.8 11.3 0.00 0.00 0.00 65 1012.0
20260505030554 19 314 3.2 11.3 0.00 0.00 0.00 65 1011.2
20260505030254 20 332 4.8 12.9 0.00 0.00 0.00 65 1011.9
20260505030011 19 284 3.2 12.9 0.00 0.00 0.00 65 1011.2
20260505025715 20 285 6.4 12.9 0.00 0.00 0.00 65 1011.8
20260505025555 20 262 4.8 12.9 0.00 0.00 0.00 65 1011.1
20260505025216 20 273 3.2 11.3 0.00 0.00 0.00 65 1011.7
20260505025036 20 320 1.6 11.3 0.00 0.00 0.00 66 1011.0
20260505024718 20 270 4.8 14.5 0.00 0.00 0.00 65 1011.6
20260505024517 20 257 3.2 14.5 0.00 0.00 0.00 65 1010.9
20260505024246 21 305 4.8 14.5 0.00 0.00 0.00 65 1011.6
20260505024040 20 312 4.8 14.5 0.00 0.00 0.00 65 1010.8
20260505023734 21 268 3.2 11.3 0.00 0.00 0.00 66 1011.5
20260505023521 21 305 3.2 8.0 0.00 0.00 0.00 65 1010.8
20260505023235 21 279 3.2 9.7 0.00 0.00 0.00 65 1011.4
20260505023050 21 15 3.2 9.7 0.00 0.00 0.00 65 1010.7
20260505022741 21 15 3.2 9.7 0.00 0.00 0.00 65 1011.5
20260505022503 21 15 4.8 9.7 0.00 0.00 0.00 64 1010.7
20260505022222 22 15 3.2 9.7 0.00 0.00 0.00 63 1011.5
20260505022049 21 14 3.2 9.7 0.00 0.00 0.00 63 1010.8
20260505021723 22 14 3.2 12.9 0.00 0.00 0.00 63 1011.6
20260505021533 21 15 3.2 12.9 0.00 0.00 0.00 63 1010.8
20260505021232 22 13 3.2 14.5 0.00 0.00 0.00 63 1011.5
20260505021012 21 15 4.8 14.5 0.00 0.00 0.00 62 1010.8
20260505020713 22 15 3.2 14.5 0.00 0.00 0.00 63 1011.5
20260505020553 22 15 4.8 14.5 0.00 0.00 0.00 64 1010.8
20260505020214 22 15 3.2 9.7 0.00 0.00 0.00 64 1011.5
20260505020038 22 15 3.2 12.9 0.00 0.00 0.00 64 1010.8
20260505015716 22 14 4.8 12.9 0.00 0.00 0.00 64 1011.6
20260505015516 22 14 4.8 12.9 0.00 0.00 0.00 64 1010.9
20260505015224 22 259 8.0 12.9 0.00 0.00 0.00 64 1011.6
20260505015059 22 232 6.4 11.3 0.00 0.00 0.00 64 1010.8
20260505014726 22 202 6.4 11.3 0.00 0.00 0.00 64 1011.5
20260505014542 22 271 3.2 12.9 0.00 0.00 0.00 63 1010.8
20260505014234 22 13 3.2 12.9 0.00 0.00 0.00 62 1011.5
20260505014023 22 14 1.6 12.9 0.00 0.00 0.00 63 1010.8
20260505013716 22 15 4.8 12.9 0.00 0.00 0.00 64 1011.7
20260505013503 22 253 3.2 11.3 0.00 0.00 0.00 63 1010.9
20260505013217 22 234 6.4 11.3 0.00 0.00 0.00 64 1011.6
20260505013047 22 219 6.4 12.9 0.00 0.00 0.00 62 1010.8
20260505012719 22 14 4.8 11.3 0.00 0.00 0.00 63 1011.6
20260505012529 22 239 4.8 11.3 0.00 0.00 0.00 63 1010.9
20260505012228 22 14 3.2 12.9 0.00 0.00 0.00 63 1011.7
20260505012010 22 14 3.2 12.9 0.00 0.00 0.00 62 1010.9
20260505011729 22 14 8.0 14.5 0.00 0.00 0.00 63 1011.7
20260505011554 22 217 8.0 14.5 0.00 0.00 0.00 66 1010.9
20260505011257 22 13 9.7 16.1 0.00 0.00 0.00 64 1011.7
20260505011014 22 252 4.8 16.1 0.00 0.00 0.00 64 1010.9
20260505010738 22 13 4.8 16.1 0.00 0.00 0.00 65 1011.7
20260505010539 22 11 8.0 16.1 0.00 0.00 0.00 64 1011.0
20260505010216 22 12 6.4 14.5 0.00 0.00 0.00 65 1011.7
20260505010026 22 15 6.4 14.5 0.00 0.00 0.00 62 1011.0
20260505005724 22 253 8.0 14.5 0.00 0.00 0.00 63 1011.8
20260505005559 22 12 8.0 14.5 0.00 0.00 0.00 64 1011.1
20260505005231 22 210 8.0 12.9 0.00 0.00 0.00 65 1011.7
20260505005019 22 232 4.8 12.9 0.00 0.00 0.00 64 1011.0
20260505004711 22 220 4.8 12.9 0.00 0.00 0.00 66 1011.8
20260505004600 22 240 4.8 12.9 0.00 0.00 0.00 65 1011.0
20260505004212 22 205 8.0 14.5 0.00 0.00 0.00 65 1011.8
20260505004042 22 13 4.8 14.5 0.00 0.00 0.00 67 1011.1
20260505003720 22 234 8.0 17.7 0.00 0.00 0.00 65 1011.8
20260505003502 22 13 6.4 17.7 0.00 0.00 0.00 66 1011.1
20260505003221 22 223 6.4 17.7 0.00 0.00 0.00 65 1011.8
20260505003048 22 13 6.4 17.7 0.00 0.00 0.00 64 1011.1
20260505002723 22 13 6.4 16.1 0.00 0.00 0.00 66 1012.0
20260505002528 22 12 6.4 19.3 0.00 0.00 0.00 67 1011.2
20260505002231 22 11 9.7 19.3 0.00 0.00 0.00 66 1012.0
20260505002009 21 174 9.7 19.3 0.00 0.00 0.00 65 1011.3
20260505001713 22 12 9.7 19.3 0.00 0.00 0.00 68 1012.0
20260505001553 21 13 9.7 14.5 0.00 0.00 0.00 65 1011.2
20260505001215 22 188 9.7 19.3 0.00 0.00 0.00 65 1012.1
20260505001034 22 201 8.0 19.3 0.00 0.00 0.00 64 1011.3
20260505000743 22 14 9.7 19.3 0.00 0.00 0.00 66 1012.1
20260505000556 22 232 11.3 19.3 0.00 0.00 0.00 65 1011.3
20260505000251 22 228 8.0 14.5 0.00 0.00 0.00 68 1012.1
20260505000032 21 226 6.4 14.5 0.00 0.00 0.00 67 1011.3
20260504235711 22 208 9.7 14.5 0.00 0.00 0.00 65 1012.1
20260504235601 21 11 9.7 14.5 0.00 0.00 0.00 65 1011.4
20260504235212 22 191 6.4 16.1 0.00 0.00 0.00 68 1012.2
20260504235045 21 200 4.8 16.1 0.00 0.00 0.00 67 1011.4
20260504234713 22 223 8.0 16.1 0.00 0.00 0.00 66 1012.3
20260504234524 21 158 8.0 16.1 0.00 0.00 0.00 67 1011.4
20260504234222 22 209 8.0 16.1 0.00 0.00 0.00 68 1012.2
20260504234004 21 144 8.0 16.1 0.00 0.00 0.00 66 1011.4
20260504233743 22 220 9.7 14.5 0.00 0.00 0.00 66 1012.1
20260504233527 21 242 6.4 14.5 0.00 0.00 0.00 66 1011.4
20260504233231 22 227 6.4 14.5 0.00 0.00 0.00 67 1012.2
20260504233052 21 227 8.0 14.5 0.00 0.00 0.00 68 1011.3
20260504232711 21 188 6.4 17.7 0.00 0.00 0.00 67 1012.2
20260504232531 21 209 8.0 17.7 0.00 0.00 0.00 66 1011.4
20260504232213 21 200 4.8 17.7 0.00 0.00 0.00 67 1012.3
20260504232012 21 219 9.7 17.7 0.00 0.00 0.00 66 1011.4
20260504231741 21 360 8.0 16.1 0.00 0.00 0.00 68 1012.2
20260504231542 21 11 4.8 14.5 0.00 0.00 0.00 66 1011.5
20260504231229 21 190 8.0 14.5 0.00 0.00 0.00 68 1012.4
20260504231015 21 202 8.0 12.9 0.00 0.00 0.00 66 1011.4
20260504230729 21 202 8.0 12.9 0.00 0.00 0.00 67 1012.3
20260504230559 21 213 8.0 14.5 0.00 0.00 0.00 69 1011.5
20260504230231 21 215 9.7 14.5 0.00 0.00 0.00 68 1012.4
20260504230034 21 237 4.8 14.5 0.00 0.00 0.00 67 1011.5
20260504225718 21 214 8.0 14.5 0.00 0.00 0.00 67 1012.4
20260504225502 21 132 3.2 12.9 0.00 0.00 0.00 65 1011.5
20260504225219 21 193 9.7 12.9 0.00 0.00 0.00 68 1012.5
20260504225044 21 221 8.0 12.9 0.00 0.00 0.00 65 1011.6
20260504224726 21 209 4.8 12.9 0.00 0.00 0.00 68 1012.6
20260504224524 21 244 3.2 12.9 0.00 0.00 0.00 68 1011.8
20260504224228 21 248 6.4 12.9 0.00 0.00 0.00 66 1012.5
20260504224059 21 207 4.8 16.1 0.00 0.00 0.00 68 1011.8
20260504223723 21 158 6.4 16.1 0.00 0.00 0.00 67 1012.7
20260504223528 20 243 3.2 16.1 0.00 0.00 0.00 67 1011.9
20260504223103 20 12 6.4 14.5 0.00 0.00 0.00 67 1012.0
20260504222726 21 205 9.7 14.5 0.00 0.00 0.00 66 1012.8
20260504222536 20 255 9.7 17.7 0.00 0.00 0.00 68 1012.0
20260504222012 20 227 4.8 17.7 0.00 0.00 0.00 67 1012.1
20260504221808 20 218 8.0 17.7 0.00 0.00 0.00 69 1012.9
20260504221507 20 178 6.4 14.5 0.00 0.00 0.00 67 1012.1
20260504221326 20 13 526.3 526.3 0.00 0.00 0.00 70 1012.1
20260504221033 20 181 6.4 12.9 0.00 0.00 0.00 70 1012.1
20260504220713 20 236 4.8 12.9 0.00 0.00 0.00 70 1012.9
20260504220515 20 188 4.8 12.9 0.00 0.00 0.00 69 1012.1
20260504220216 20 177 8.0 17.7 0.00 0.00 0.00 69 1013.0
20260504220058 20 188 6.4 17.7 0.00 0.00 0.00 69 1012.2
20260504215712 20 198 11.3 17.7 0.00 0.00 0.00 69 1013.1
20260504215548 20 11 11.3 17.7 0.00 0.00 0.00 68 1012.2
20260504215239 20 138 6.4 0.0 0.00 0.00 0.00 71 1012.8
20260504215023 20 247 6.4 12.9 0.00 0.00 0.00 71 1012.3
20260504214508 20 201 4.8 17.7 0.00 0.00 0.00 68 1012.3
20260504214218 20 201 8.0 17.7 0.00 0.00 0.00 71 1013.2
20260504214049 20 206 8.0 17.7 0.00 0.00 0.00 72 1012.5
20260504213713 20 117 8.0 17.7 0.00 0.00 0.00 70 1013.2
20260504213521 20 13 4.8 12.9 0.00 0.00 0.00 73 1012.4
20260504213014 19 268 3.2 14.5 0.00 0.00 0.00 70 1012.5
20260504212601 19 157 8.0 14.5 0.00 0.00 0.00 72 1012.3
20260504212214 19 288 4.8 16.1 0.00 0.00 0.00 71 1013.3
20260504212042 19 227 6.4 16.1 0.00 0.00 0.00 70 1012.5
20260504211839 19 254 6.4 14.5 0.00 0.00 0.00 73 1013.4
20260504211506 18 253 3.2 14.5 0.00 0.00 0.00 70 1012.6
20260504211212 19 261 8.0 14.5 0.00 0.00 0.00 71 1013.6
20260504211049 18 227 9.7 14.5 0.00 0.00 0.00 69 1012.7
20260504210755 19 221 9.7 12.9 0.00 0.00 0.00 73 1013.6
20260504210509 18 174 8.0 12.9 0.00 0.00 0.00 74 1012.8
20260504210216 18 227 3.2 14.5 0.00 0.00 0.00 75 1013.7
20260504210050 18 329 3.2 14.5 0.00 0.00 0.00 72 1012.8
20260504205714 18 263 4.8 14.5 0.00 0.00 0.00 76 1013.8
20260504205531 18 257 3.2 14.5 0.00 0.00 0.00 75 1013.0
20260504205240 18 234 9.7 16.1 0.00 0.00 0.00 73 1013.9
20260504205043 18 218 6.4 16.1 0.00 0.00 0.00 74 1013.0
20260504204734 18 237 8.0 16.1 0.00 0.00 0.00 74 1013.9
20260504204525 18 228 8.0 17.7 0.00 0.00 0.00 75 1013.0
20260504204018 18 169 4.8 17.7 0.00 0.00 0.00 77 1013.1
20260504203713 18 252 8.0 17.7 0.00 0.00 0.00 76 1014.0
20260504203508 17 209 9.7 17.7 0.00 0.00 0.00 74 1013.1
20260504203223 18 227 9.7 16.1 0.00 0.00 0.00 75 1014.0
20260504203053 17 217 4.8 16.1 0.00 0.00 0.00 76 1013.1
20260504202722 18 251 6.4 16.1 0.00 0.00 0.00 75 1013.9
20260504202527 17 215 6.4 12.9 0.00 0.00 0.00 74 1013.1
20260504202222 18 229 6.4 14.5 0.00 0.00 0.00 75 1014.1
20260504202001 17 228 8.0 14.5 0.00 0.00 0.00 78 1013.2
20260504201805 17 207 8.0 14.5 0.00 0.00 0.00 78 1014.3
20260504201534 17 213 6.4 12.9 0.00 0.00 0.00 77 1013.4
20260504201011 17 196 9.7 12.9 0.00 0.00 0.00 76 1013.4
20260504200718 17 221 4.8 12.9 0.00 0.00 0.00 79 1014.3
20260504200552 17 251 4.8 12.9 0.00 0.00 0.00 76 1013.4
20260504200220 17 231 8.0 14.5 0.00 0.00 0.00 77 1014.3
20260504200033 17 207 6.4 14.5 0.00 0.00 0.00 79 1013.5
20260504195726 17 223 9.7 16.1 0.00 0.00 0.00 77 1014.4
20260504195509 17 228 8.0 16.1 0.00 0.00 0.00 80 1013.5
20260504195224 17 205 11.3 16.1 0.00 0.00 0.00 79 1014.5
20260504195030 17 215 11.3 16.1 0.00 0.00 0.00 77 1013.6
20260504194725 17 212 8.0 16.1 0.00 0.00 0.00 78 1014.5
20260504194507 17 269 6.4 16.1 0.00 0.00 0.00 78 1013.5
20260504194225 17 221 3.2 16.1 0.00 0.00 0.00 81 1014.5
20260504194053 17 251 4.8 16.1 0.00 0.00 0.00 81 1013.6
20260504193733 17 220 6.4 14.5 0.00 0.00 0.00 78 1014.5
20260504193531 16 285 8.0 14.5 0.00 0.00 0.00 80 1013.6
20260504193235 16 223 8.0 17.7 0.00 0.00 0.00 80 1014.5
20260504193048 16 246 8.0 17.7 0.00 0.00 0.00 80 1013.5
20260504192520 16 229 8.0 17.7 0.00 0.00 0.00 79 1013.6
20260504192229 16 215 12.9 17.7 0.00 0.00 0.00 79 1014.4
20260504192058 16 210 9.7 14.5 0.00 0.00 0.00 81 1013.5
20260504191755 16 239 11.3 14.5 0.00 0.00 0.00 80 1014.6
20260504191602 16 200 9.7 16.1 0.00 0.00 0.00 80 1013.7
20260504191217 16 197 8.0 16.1 0.00 0.00 0.00 81 1014.5
20260504191044 16 228 6.4 16.1 0.00 0.00 0.00 81 1013.6
20260504190719 16 246 11.3 17.7 0.00 0.00 0.00 79 1014.5
20260504190522 16 211 6.4 16.1 0.00 0.00 0.00 79 1013.6
20260504190221 16 164 8.0 16.1 0.00 0.00 0.00 79 1014.6
20260504190057 16 201 8.0 16.1 0.00 0.00 0.00 79 1013.6
20260504185716 16 188 6.4 16.1 0.00 0.00 0.00 80 1014.6
20260504185537 16 223 6.4 16.1 0.00 0.00 0.00 79 1013.7
20260504185228 16 223 526.3 526.3 0.00 0.00 0.00 80 1014.3
20260504185020 15 207 8.0 19.3 0.00 0.00 0.00 79 1013.7
20260504184819 16 232 11.3 19.3 0.00 0.00 0.00 80 1014.6
20260504184519 16 242 8.0 16.1 0.00 0.00 0.00 81 1013.7
20260504184215 16 209 9.7 17.7 0.00 0.00 0.00 81 1014.7
20260504184102 15 167 9.7 16.1 0.00 0.00 0.00 80 1013.7
20260504183540 15 205 6.4 16.1 0.00 0.00 0.00 81 1013.7
20260504183241 15 189 8.0 16.1 0.00 0.00 0.00 81 1014.6
20260504183102 15 235 6.4 17.7 0.00 0.00 0.00 81 1013.6
20260504182722 16 232 11.3 17.7 0.00 0.00 0.00 81 1014.6
20260504182542 15 232 9.7 17.7 0.00 0.00 0.00 80 1013.7
20260504182029 15 223 6.4 16.1 0.00 0.00 0.00 82 1013.7
20260504181735 15 236 9.7 0.0 0.00 0.00 0.00 81 1014.4
20260504181551 15 238 8.0 19.3 0.00 0.00 0.00 82 1013.7
20260504181210 15 171 11.3 19.3 0.00 0.00 0.00 80 1014.6
20260504181033 15 239 11.3 19.3 0.00 0.00 0.00 81 1013.7
20260504180720 15 243 526.3 526.3 0.00 0.00 0.00 81 1014.4
20260504180608 15 243 9.7 16.1 0.00 0.00 0.00 82 1013.7
20260504175758 15 224 9.7 0.0 0.00 0.00 0.00 81 1013.6
20260504175555 15 179 6.4 16.1 0.00 0.00 0.00 83 1013.7
20260504175211 15 225 9.7 16.1 0.00 0.00 0.00 82 1014.6
20260504175042 15 209 8.0 16.1 0.00 0.00 0.00 80 1013.6
20260504174805 15 143 9.7 17.7 0.00 0.00 0.00 81 1014.6
20260504174546 15 204 11.3 17.7 0.00 0.00 0.00 80 1013.7
20260504174218 15 204 11.3 16.1 0.00 0.00 0.00 83 1014.6
20260504174025 15 234 8.0 16.1 0.00 0.00 0.00 81 1013.6
20260504173513 15 227 9.7 19.3 0.00 0.00 0.00 82 1013.7
20260504173220 15 194 9.7 19.3 0.00 0.00 0.00 81 1014.6
20260504173053 15 202 12.9 19.3 0.00 0.00 0.00 82 1013.6
20260504172723 15 202 11.3 16.1 0.00 0.00 0.00 81 1014.6
20260504172533 15 187 8.0 16.1 0.00 0.00 0.00 83 1013.6
20260504172227 15 245 8.0 17.7 0.00 0.00 0.00 82 1014.6
20260504172014 14 234 9.7 17.7 0.00 0.00 0.00 82 1013.6
20260504171724 15 215 9.7 17.7 0.00 0.00 0.00 82 1014.5
20260504171213 15 229 11.3 17.7 0.00 0.00 0.00 81 1014.5
20260504171044 14 221 12.9 19.3 0.00 0.00 0.00 82 1013.6
20260504170714 15 229 12.9 19.3 0.00 0.00 0.00 81 1014.5
20260504170522 15 235 11.3 19.3 0.00 0.00 0.00 80 1013.5
20260504160251 14 192 12.9 19.3 0.00 0.00 0.00 81 1014.3
20260504151044 13 232 8.0 14.5 0.00 0.00 0.00 83 1013.0
20260504150633 13 153 8.0 14.5 0.00 0.00 0.00 84 1013.0
20260504150233 13 181 8.0 14.5 0.00 0.00 0.00 84 1013.9
20260504141216 12 173 4.8 14.5 0.00 0.00 0.00 85 1013.4
20260504141028 12 173 6.4 14.5 0.00 0.00 0.00 85 1012.4
20260504140724 12 183 6.4 14.5 0.00 0.00 0.00 85 1013.3
20260504140505 12 153 8.0 14.5 0.00 0.00 0.00 85 1012.4
20260504140221 12 195 6.4 14.5 0.00 0.00 0.00 85 1013.3
20260504130821 13 182 3.2 4.8 0.00 0.00 0.00 82 1012.2
20260504130511 12 182 1.6 4.8 0.00 0.00 0.00 82 1011.3
20260504130221 13 176 1.6 4.8 0.00 0.00 0.00 81 1012.1
20260504120220 14 208 3.2 8.0 0.00 0.00 0.00 76 1011.2
20260504110716 16 227 1.6 6.4 0.00 0.00 0.00 70 1010.7
20260504110516 15 270 0.0 6.4 0.00 0.00 0.00 70 1009.8
20260504100501 16 53 1.6 3.2 0.00 0.00 0.00 72 1009.4
20260504100217 16 53 1.6 3.2 0.00 0.00 0.00 72 1010.2